Location: Nantong Television Tower
(32.0188°N, 120.8512°E)
Time: 21:47:41
(UTC+08:00)

Daily predictions for brighter satellites

Satellite Brightness Start Highest point End
(mag) Time Altitude Azimuth Time Altitude Azimuth Time Altitude Azimuth
SPOT 3 Rocket 3.7 17:08:52 10° SSE 17:13:51 51° ENE 17:18:50 10° N
Meteor 1-13 Rocket 4.5 17:09:17 10° S 17:14:47 53° E 17:20:25 10° NNE
Cosmos 921 Rocket 3.0 17:10:35 10° S 17:14:48 70° ESE 17:19:06 10° NNE
Cosmos 1346 Rocket 2.7 17:11:08 10° S 17:15:02 87° E 17:18:55 10° N
Cosmos 1025 Rocket 4.1 17:13:49 10° SE 17:17:23 25° E 17:20:59 10° NE
COSMO-SKYMED 1 3.7 17:14:38 10° NE 17:18:15 25° E 17:21:50 10° SSE
MOS 1 4.3 17:16:36 10° SSE 17:22:12 66° ENE 17:27:48 10° N
MSX 4.1 17:23:01 10° SE 17:28:29 47° ENE 17:33:57 10° N
KM-V1 3.1 17:27:44 10° W 17:30:43 74° S 17:32:40 11° E
ATLAS 2AS CENTAUR R/B 4.0 17:23:56 10° NW 17:31:31 50° WSW 17:38:28 10° S
Cosmos 1500 3.2 17:28:09 10° N 17:32:01 90° E 17:35:53 10° S
Cosmos 1743 3.1 17:32:02 10° N 17:35:41 41° E 17:39:19 10° SSE
YAOGAN 1 2.5 17:32:22 10° SSE 17:36:42 81° ENE 17:41:01 10° N
Meteor 1-28 Rocket 4.4 17:36:36 10° NE 17:39:39 23° E 17:42:40 10° SSE
Meteor 2-21 4.4 17:38:13 10° N 17:44:23 87° E 17:50:29 10° S
IDEFIX/ARIANE 42P 2.8 17:40:55 10° S 17:46:06 75° WSW 17:51:18 10° NNW
CZ-3B DEB 4.3 17:44:45 10° NW 17:47:56 17° N 17:53:09 10° NNE
Tiangong 1 3.5 17:49:12 10° NNW 17:50:07 11° N 17:51:02 10° NNE
Cosmos 1484 Rocket 2.9 17:47:00 10° SSE 17:50:34 44° ENE 17:54:08 10° N
CZ-2C R/B 3.4 17:54:36 10° S 17:59:26 51° W 18:04:26 10° NNW
COSMOS 2441 4.3 17:54:54 10° SSE 17:59:45 81° ENE 18:04:40 10° N
Meteor 2-14 Rocket 4.4 17:54:53 10° N 18:01:03 87° E 18:07:10 10° S
Delta 2 Rocket 3.4 17:59:08 10° WNW 18:02:39 50° N 18:04:23 28° ENE
Cosmos 1833 Rocket 2.6 17:57:50 10° NNW 18:03:29 85° ENE 18:09:06 10° SSE
DMSP B5D1-3 4.5 17:58:57 10° NNE 18:04:04 67° ESE 18:09:08 10° S
Cosmos 2239 Rocket 4.4 17:58:35 10° N 18:04:45 72° E 18:10:51 10° SSE
SKYMED 2 3.6 18:02:02 10° N 18:06:23 80° WNW 18:10:42 10° SSW
Okean 2 3.4 18:02:42 10° S 18:06:47 59° E 18:10:35 12° NNE
Intercosmos 25 3.4 18:03:52 10° NNW 18:07:04 69° W 18:11:09 10° S
Cosmos 2082 Rocket 2.7 18:08:14 10° NNW 18:13:50 64° WSW 18:19:26 10° S
Cosmos 1892 Rocket 3.4 18:11:17 10° S 18:15:36 70° E 18:19:21 14° NNE
CZ-4 R/B 4.3 18:14:13 10° SW 18:17:15 20° W 18:20:17 10° NW
Cosmos 1821 Rocket 3.9 18:11:29 10° N 18:17:36 88° E 18:23:43 10° S
Cosmos 1340 2.5 18:18:16 10° S 18:22:01 70° E 18:23:27 35° NNE
Abrixas 2.6 18:19:24 10° NW 18:22:20 68° SW 18:22:51 53° SSE
Cosmos 2056 Rocket 4.4 18:20:49 10° SW 18:26:00 48° WNW 18:31:08 10° N
Cosmos 1726 Rocket 3.5 18:22:01 10° N 18:26:27 67° E 18:30:52 10° SSE
Cosmos 407 Rocket 3.5 18:22:59 10° N 18:28:00 51° ENE 18:33:01 10° SSE
Cosmos 1605 Rocket 4.0 18:22:19 10° N 18:28:28 58° E 18:34:29 10° SSE
Orbus 7S? 3.6 18:37:10 10° SW 18:39:26 42° W 18:39:26 42° W
NOAA 12 4.0 18:39:21 10° SSE 18:44:37 85° ENE 18:49:53 10° NNW
Cosmos 2369 Rocket 2.1 18:40:16 10° SSW 18:45:54 84° ESE 18:47:59 41° NNE
Cosmos 1606 Rocket 4.2 18:41:45 10° NNW 18:46:08 55° W 18:50:29 10° S
Cosmos 1666 4.1 18:42:31 10° NNW 18:46:09 39° W 18:49:47 10° SSW
OAO 2 Rocket 3.6 18:42:17 10° SW 18:47:16 50° SSE 18:47:39 48° SE
Cosmos 1727 Rocket 4.2 18:55:39 10° SSW 19:01:50 69° W 19:07:31 12° N
NOSS 3-4 (A) 4.1 19:00:42 10° NW 19:07:50 69° WSW 19:15:21 10° SSE
NOSS 3-4 (C) 4.1 19:00:47 10° NW 19:07:56 70° WSW 19:15:27 10° SSE
Cosmos 1943 Rocket 3.0 19:07:16 10° S 19:10:40 37° S 19:10:40 37° S
FALCON 9 R/B 2.8 18:56:46 10° W 19:15:50 78° N 19:16:46 68° ENE
ATLAS 3B CENTAUR R/B 3.4 19:11:16 10° W 19:28:31 60° SSW 19:30:13 51° SSE
